Вернуться в каталог

STARLINK-3943

АктивенСвязьVLEO
NORAD 52557·PAYLOAD·🇺🇸 United States

Запущен May 13, 2022 с Vandenberg Space Force Base

Loading…

Ближайшие Пролёты (ближайшие 24 часа)

TLE

СвежийSource: CelesTrak SupGP

Эпоха: Sep 14, 2026, 20:59 UTC

1 52557C 22051AA  26257.87479167 -.00028258  00000+0 -83521-3 0  2570
2 52557  53.1591 348.3734 0000968  78.6761 313.3911 15.34392987    13

Отслеживайте STARLINK-3943 в реальном времени с AllMySat

Download on the App Store